Weather reports worldwide

Advertisment
Bridgefoot, United Kingdom (99137): temperature & dewpoint: 10.12.2017 05:00:00 - 16.12.2017 05:00:00 (GMT)Bridgefoot, United Kingdom (99137): precipitation: 10.12.2017 05:00:00 - 16.12.2017 05:00:00 (GMT)
Date & Time tt [°C] td [°C] rr [mm]
16.12.2017 05:00:00 - - -
16.12.2017 04:00:00 -2,6 -3,0 0,0
16.12.2017 03:00:00 -3,7 -4,2 0,0
16.12.2017 02:00:00 -3,7 -4,3 0,0
16.12.2017 01:00:00 -3,0 -3,6 0,0
16.12.2017 00:00:00 -2,4 -2,9 0,0
15.12.2017 23:00:00 -2,7 -3,4 0,0
15.12.2017 22:00:00 -2,5 -3,6 0,0
15.12.2017 21:00:00 -1,0 -2,3 0,0
15.12.2017 20:00:00 1,2 -0,7 0,0
15.12.2017 19:00:00 2,0 1,1 0,0
15.12.2017 18:00:00 - - 0,0
15.12.2017 17:00:00 0,3 -1,3 0,0
15.12.2017 16:00:00 1,9 -1,3 0,0
15.12.2017 15:00:00 4,3 -0,3 0,0
15.12.2017 14:00:00 4,8 0,2 0,0
15.12.2017 13:00:00 5,0 0,9 0,0
15.12.2017 12:00:00 5,0 1,6 0,0
15.12.2017 11:00:00 4,5 2,4 0,0
15.12.2017 10:00:00 2,5 1,4 0,0
15.12.2017 09:00:00 2,9 1,3 0,2
15.12.2017 08:00:00 1,9 1,3 0,0
15.12.2017 07:00:00 0,6 -0,1 0,0
15.12.2017 06:00:00 0,5 -0,2 0,0
15.12.2017 05:00:00 0,7 0,2 0,0
15.12.2017 04:00:00 -0,6 -1,1 0,0
15.12.2017 03:00:00 -0,5 -1,1 0,0
15.12.2017 02:00:00 0,3 -0,4 0,0
15.12.2017 01:00:00 1,3 0,7 0,0
15.12.2017 00:00:00 2,6 2,0 0,0
14.12.2017 23:00:00 2,4 1,7 0,0
14.12.2017 22:00:00 2,8 1,9 0,0
14.12.2017 21:00:00 3,9 2,8 0,0
14.12.2017 20:00:00 4,0 3,0 1,2
14.12.2017 19:00:00 4,3 2,6 0,2
14.12.2017 18:00:00 2,8 1,2 0,0
14.12.2017 17:00:00 3,2 1,0 0,0
14.12.2017 16:00:00 3,9 2,3 0,0
14.12.2017 15:00:00 4,6 2,8 0,0
14.12.2017 14:00:00 4,5 3,4 2,0
14.12.2017 13:00:00 4,7 3,6 1,2
14.12.2017 12:00:00 5,7 3,9 0,8
14.12.2017 11:00:00 4,7 3,1 2,0
14.12.2017 10:00:00 5,1 3,2 0,4
14.12.2017 09:00:00 4,7 2,7 0,2
14.12.2017 08:00:00 5,5 2,1 0,0
14.12.2017 07:00:00 4,9 2,2 0,0
14.12.2017 06:00:00 4,8 2,5 0,0
14.12.2017 05:00:00 4,1 2,5 0,8
14.12.2017 04:00:00 4,5 1,7 0,0
14.12.2017 03:00:00 3,6 0,1 0,0
14.12.2017 02:00:00 3,2 0,5 0,0
14.12.2017 01:00:00 3,3 0,5 0,0
14.12.2017 00:00:00 3,6 0,1 0,0
13.12.2017 23:00:00 4,3 0,7 0,0
13.12.2017 22:00:00 3,9 0,6 0,0
13.12.2017 21:00:00 3,4 0,3 0,0
13.12.2017 20:00:00 4,3 0,5 0,0
13.12.2017 19:00:00 4,4 1,4 0,0
13.12.2017 18:00:00 4,5 0,2 0,0
13.12.2017 17:00:00 4,0 0,5 0,0
13.12.2017 16:00:00 4,8 0,5 0,2
13.12.2017 15:00:00 4,7 1,2 0,0
13.12.2017 14:00:00 5,2 1,4 0,0
13.12.2017 13:00:00 5,8 2,7 0,0
13.12.2017 12:00:00 5,7 3,3 1,0
13.12.2017 11:00:00 6,1 4,3 1,4
13.12.2017 10:00:00 7,1 5,7 0,2
13.12.2017 09:00:00 6,9 5,7 0,6
13.12.2017 08:00:00 6,8 5,6 1,2
13.12.2017 07:00:00 6,9 5,3 0,2
13.12.2017 06:00:00 6,5 4,4 0,0
13.12.2017 05:00:00 6,6 4,6 0,0
13.12.2017 04:00:00 6,7 4,8 0,0
13.12.2017 03:00:00 6,6 4,5 0,0
13.12.2017 02:00:00 6,5 4,1 0,0
13.12.2017 01:00:00 6,6 4,4 0,0
13.12.2017 00:00:00 6,6 4,4 0,0
12.12.2017 23:00:00 6,0 4,1 0,0
12.12.2017 22:00:00 6,1 4,4 0,0
12.12.2017 21:00:00 6,3 4,7 0,2
12.12.2017 20:00:00 6,2 5,6 2,2
12.12.2017 19:00:00 5,1 4,1 2,4
12.12.2017 18:00:00 4,6 2,8 0,8
12.12.2017 17:00:00 5,1 3,0 0,4
12.12.2017 16:00:00 5,6 2,5 0,0
12.12.2017 15:00:00 4,2 2,3 0,0
12.12.2017 14:00:00 4,4 2,5 0,0
12.12.2017 13:00:00 4,3 2,2 0,0
12.12.2017 12:00:00 4,3 2,3 0,0
12.12.2017 11:00:00 2,7 1,8 0,2
12.12.2017 10:00:00 -4,5 -4,9 0,0
12.12.2017 09:00:00 -6,2 -6,8 0,0
12.12.2017 08:00:00 -7,0 -7,8 0,0
12.12.2017 07:00:00 -6,9 -7,7 0,0
12.12.2017 06:00:00 -6,6 -7,4 0,0
12.12.2017 05:00:00 -6,5 -7,4 0,0
12.12.2017 04:00:00 -6,5 -7,3 0,0
12.12.2017 03:00:00 -5,6 -6,2 0,0
12.12.2017 02:00:00 -5,6 -6,2 0,0
12.12.2017 01:00:00 -5,6 -6,2 0,0
12.12.2017 00:00:00 -6,1 -6,9 0,0
11.12.2017 23:00:00 -5,7 -6,4 0,0
11.12.2017 22:00:00 -5,6 -6,4 0,0
11.12.2017 21:00:00 -4,9 -5,7 0,0
11.12.2017 20:00:00 -4,1 -4,8 0,0
11.12.2017 19:00:00 -3,0 -3,7 0,0
11.12.2017 18:00:00 -2,1 -2,9 0,0
11.12.2017 17:00:00 -2,2 -3,3 0,0
11.12.2017 16:00:00 -1,0 -3,0 0,0
11.12.2017 15:00:00 1,5 -1,6 0,0
11.12.2017 14:00:00 2,6 -0,9 0,0
11.12.2017 13:00:00 2,7 0,2 0,0
11.12.2017 12:00:00 -0,7 -1,4 0,0
11.12.2017 11:00:00 -2,5 -3,2 0,0
11.12.2017 10:00:00 -4,2 -4,7 0,0
11.12.2017 09:00:00 -6,3 -7,1 0,0
11.12.2017 08:00:00 -8,2 -9,0 0,0
11.12.2017 07:00:00 -8,1 -9,1 0,0
11.12.2017 06:00:00 -8,5 -9,5 0,0
11.12.2017 05:00:00 -8,2 -9,3 0,0
11.12.2017 04:00:00 -7,4 -8,2 0,0
11.12.2017 03:00:00 -7,5 -8,4 0,0
11.12.2017 02:00:00 -7,7 -8,6 0,0
11.12.2017 01:00:00 -7,5 -8,5 0,0
11.12.2017 00:00:00 -6,5 -7,1 0,0
10.12.2017 23:00:00 -6,8 -7,6 0,0
10.12.2017 22:00:00 -6,0 -6,7 0,0
10.12.2017 21:00:00 -5,9 -6,6 0,0
10.12.2017 20:00:00 -5,6 -6,4 0,0
10.12.2017 19:00:00 -4,9 -5,8 0,0
10.12.2017 18:00:00 -4,6 -5,7 0,0
10.12.2017 17:00:00 -3,5 -5,3 0,0
10.12.2017 16:00:00 -2,5 -5,1 0,0
10.12.2017 15:00:00 -0,6 -4,0 0,0
10.12.2017 14:00:00 -0,3 -3,3 0,0
10.12.2017 13:00:00 -0,4 -2,9 0,0
10.12.2017 12:00:00 0,4 -2,0 0,0
10.12.2017 11:00:00 -1,9 -2,8 0,0
10.12.2017 10:00:00 -2,2 -2,9 0,0
10.12.2017 09:00:00 -1,7 -2,4 0,0
10.12.2017 08:00:00 -0,2 -1,5 0,0
10.12.2017 07:00:00 0,0 -1,3 0,0
10.12.2017 06:00:00 0,4 -0,9 0,0
10.12.2017 05:00:00 0,1 -0,7 0,0

tt = temperature
td = dewpoint
rr = precipitation

Next stations